Flag for Germany Weather past 2 weeks in Senftenberg, Brandenburg, Germany

Now
67 °F

Sunny.


Feels Like: 67 °F
Forecast: 50 / 71 °F
Wind: 3 mph from Northwest

Location: Cottbus

Current Time: Aug 21, 2014 at 7:09:40 PM

Latest Report: Aug 21, 2014 at 6:00 PM


Visibility: 31 mi

Pressure: 29.98 "Hg

Humidity: 43%

Dew point: 44 °F

Location of SenftenbergLocation

Historic Weather in Senftenberg — Graph

°F

Senftenberg temperature yesterday

Maximum temperature yesterday: 65 °F (at 5:00 PM)
Minimum temperature yesterday: 50 °F (at 6:00 AM)
Average temperature yesterday: 57 °F

Past Weeks' High & Low Weather Summary

 TemperatureHumidityPressure
High85 °F (Aug 9, 2:00 PM)98% (Aug 8, 4:00 AM)30.01 "Hg (Aug 8, 4:00 AM)
Low46 °F (Aug 21, 5:00 AM)38% (Aug 11, 4:00 PM)29.63 "Hg (Aug 14, 12:00 AM)
Average64 °F71%29.87 "Hg
* Reported Aug 6 6:00 PM — Aug 21 6:00 PM, Senftenberg, Weather by CustomWeather, © 2014

Note: Actual official high and low records may vary slightly from our data, if they occured in-between our weather recording intervals... More about our weather records

Advertising

Senftenberg weather history for previous 24 hours

 ConditionsComfort  
Time TempWeatherWind HumidityBarometerVisibility
6:00 PM
Aug 21
67 °FSunny.3 mph43%29.98 "Hg31 mi
5:00 PM68 °FScattered clouds.3 mph44%29.98 "Hg25 mi
4:00 PM68 °FOvercast.3 mph50%29.99 "Hg25 mi
3:00 PM65 °FScattered clouds.2 mph46%29.99 "Hg28 mi
2:00 PM64 °FThunderstorms. Partly sunny.3 mph54%30.00 "Hg16 mi
1:00 PM65 °FPartly sunny.3 mph51%30.00 "Hg19 mi
12:00 PM65 °FPassing clouds.3 mph52%30.01 "Hg28 mi
11:00 AM64 °FPassing clouds.2 mph51%30.01 "Hg28 mi
10:00 AM62 °FPassing clouds.1 mph57%30.01 "Hg28 mi
9:00 AM59 °FSunny.1 mph66%30.01 "Hg25 mi
8:00 AM53 °FPassing clouds.1 mph79%30.00 "Hg19 mi
7:00 AM48 °FScattered clouds.1 mph94%30.01 "Hg12 mi
6:00 AM47 °FOvercast.1 mph93%30.01 "Hg14 mi
5:00 AM46 °FOvercast.1 mph96%30.00 "Hg12 mi
4:00 AM46 °FOvercast.1 mph95%30.00 "Hg12 mi
3:00 AM47 °FOvercast.1 mph92%30.00 "Hg17 mi
2:00 AM49 °FOvercast.1 mph89%30.01 "Hg19 mi
1:00 AM49 °FOvercast.1 mph88%30.01 "Hg22 mi
12:00 AM49 °FOvercast.2 mph93%30.00 "Hg19 mi
11:00 PM
Aug 20
50 °FOvercast.1 mph89%30.00 "Hg22 mi
10:00 PM51 °FOvercast.1 mph88%29.99 "Hg25 mi
9:00 PM54 °FOvercast.1 mph81%29.98 "Hg19 mi
8:00 PM61 °FOvercast.2 mph55%29.97 "Hg37 mi
7:00 PM64 °FOvercast.2 mph47%29.97 "Hg40 mi
Weather by CustomWeather, © 2014

See weather overviewHow to use our weather pages